Stuart, FL

9:43 PM EDT on June 23, 2017 (GMT -0400)
Witham

Weather History for KSUA - January, 2014

Change the Weather History Date:

Friday, January 17, 2014

  Actual Average Record
Temperature  
Mean Temperature 52 °F -  
Max Temperature 64 °F 73 °F 85 °F (1954)
Min Temperature 41 °F 52 °F 19 °F (2008)
Degree Days  
Heating Degree Days 12    
Growing Degree Days 2 (Base 50)    
Moisture  
Dew Point 27 °F    
Average Humidity 43    
Maximum Humidity 76    
Minimum Humidity 16    
Precipitation  
Precipitation 0.00 in - - ()
Sea Level Pressure  
Sea Level Pressure 30.17 in    
Wind  
Wind Speed 6 mph (NW)    
Max Wind Speed 9 mph    
Max Gust Speed -    
Visibility 10 miles    
Events      
Averages and records for this station are not official NWS values.
T = Trace of Precipitation, MM = Missing Value Source: NWS Daily Summary

Daily Weather History Graph

Daily Weather History Graph

Search for Another Location

Airport or City:

Trip Planner

Search our weather history database for the weather conditions in past years. The results will help you decide how hot, cold, wet, or windy it might be!

Date:

Astronomy

Jan. 17, 2014 Rise Set
Actual Time 7:11 AM EST 5:50 PM EST
Civil Twilight 6:46 AM EST 6:15 PM EST
Nautical Twilight 6:18 AM EST 6:44 PM EST
Astronomical Twilight 5:50 AM EST 7:12 PM EST
Moon 7:22 PM EST (1/17) 7:50 AM EST (1/17)
Length of Visible Light 11h 28m
Length of Day
10h 39m
Full, 98% of the Moon is Illuminated
Jan 17
Full
Jan 24
Last Quarter
Jan 30
New
Feb 6
First Quarter
Feb 14
Full

Hourly Weather History & Observations

Time (EST) Temp. Windchill Dew Point Humidity Pressure Visibility Wind Dir Wind Speed Gust Speed Precip Events Conditions
12:15 AM 46.4 °F 42.9 °F 28.4 °F 50% 30.17 in 10.0 mi NNW 6.9 mph - N/A   Clear
12:35 AM 46.4 °F 44.3 °F 26.6 °F 46% 30.16 in 10.0 mi NNW 4.6 mph - N/A   Clear
12:55 AM 44.6 °F 40.2 °F 26.6 °F 49% 30.16 in 10.0 mi NNW 8.1 mph - N/A   Clear
1:15 AM 44.6 °F 40.2 °F 28.4 °F 53% 30.17 in 10.0 mi NW 8.1 mph - N/A   Clear
1:35 AM 44.6 °F 40.2 °F 26.6 °F 49% 30.16 in 10.0 mi NW 8.1 mph - N/A   Clear
1:55 AM 44.6 °F 39.7 °F 26.6 °F 49% 30.16 in 10.0 mi NW 9.2 mph - N/A   Clear
2:15 AM 44.6 °F 40.7 °F 26.6 °F 49% 30.16 in 10.0 mi NW 6.9 mph - N/A   Clear
2:35 AM 44.6 °F 41.4 °F 26.6 °F 49% 30.16 in 10.0 mi NW 5.8 mph - N/A   Clear
2:55 AM 42.8 °F 38.0 °F 26.6 °F 53% 30.16 in 10.0 mi NW 8.1 mph - N/A   Clear
3:15 AM 44.6 °F 41.4 °F 26.6 °F 49% 30.16 in 10.0 mi NW 5.8 mph - N/A   Clear
3:35 AM 42.8 °F 38.0 °F 26.6 °F 53% 30.15 in 10.0 mi NW 8.1 mph - N/A   Clear
3:55 AM 42.8 °F 39.3 °F 28.4 °F 57% 30.15 in 10.0 mi NNW 5.8 mph - N/A   Clear
4:15 AM 42.8 °F 39.3 °F 28.4 °F 57% 30.16 in 10.0 mi NW 5.8 mph - N/A   Clear
4:35 AM 42.8 °F 40.1 °F 28.4 °F 57% 30.16 in 10.0 mi NW 4.6 mph - N/A   Clear
4:55 AM 41.0 °F 39.0 °F 30.2 °F 65% 30.16 in 10.0 mi WNW 3.5 mph - N/A   Clear
5:15 AM 42.8 °F 39.3 °F 32.0 °F 66% 30.16 in 10.0 mi NW 5.8 mph - N/A   Clear
5:35 AM 42.8 °F 39.3 °F 32.0 °F 66% 30.16 in 10.0 mi NW 5.8 mph - N/A   Clear
5:55 AM 42.8 °F 41.1 °F 32.0 °F 66% 30.16 in 10.0 mi WNW 3.5 mph - N/A   Clear
6:15 AM 42.8 °F 40.1 °F 32.0 °F 66% 30.17 in 10.0 mi NW 4.6 mph - N/A   Clear
6:47 AM 41.0 °F 39.0 °F 33.8 °F 76% 30.18 in 10.0 mi West 3.5 mph - N/A   Scattered Clouds
7:47 AM 44.6 °F 40.7 °F 33.8 °F 66% 30.20 in 10.0 mi NW 6.9 mph - N/A   Scattered Clouds
8:47 AM 48.2 °F - 28.4 °F 46% 30.21 in 10.0 mi NW 4.6 mph - N/A   Scattered Clouds
9:47 AM 53.6 °F - 28.4 °F 38% 30.22 in 10.0 mi WNW 6.9 mph - N/A   Scattered Clouds
10:47 AM 57.2 °F - 24.8 °F 29% 30.23 in 10.0 mi West 6.9 mph - N/A   Mostly Cloudy
11:47 AM 59.0 °F - 26.6 °F 29% 30.22 in 10.0 mi WNW 6.9 mph - N/A   Mostly Cloudy
12:47 PM 62.6 °F - 28.4 °F 27% 30.18 in 10.0 mi NW 6.9 mph - N/A   Mostly Cloudy
1:47 PM 64.4 °F - 26.6 °F 24% 30.14 in 10.0 mi Variable 4.6 mph - N/A   Scattered Clouds
2:47 PM 62.6 °F - 24.8 °F 24% 30.12 in 7.0 mi North 4.6 mph - N/A   Mostly Cloudy
3:47 PM 64.4 °F - 24.8 °F 22% 30.13 in 7.0 mi Calm Calm - N/A   Mostly Cloudy
4:47 PM 64.4 °F - 26.6 °F 24% 30.12 in 7.0 mi WNW 5.8 mph - N/A   Mostly Cloudy
5:47 PM 62.6 °F - 15.8 °F 16% 30.14 in 7.0 mi WNW 4.6 mph - N/A   Mostly Cloudy
6:47 PM 59.0 °F - 15.8 °F 19% 30.14 in 7.0 mi WNW 4.6 mph - N/A   Mostly Cloudy
8:15 PM 55.4 °F - 24.8 °F 31% 30.16 in 10.0 mi Calm Calm - N/A   Clear
8:35 PM 55.4 °F - 24.8 °F 31% 30.17 in 10.0 mi Calm Calm - N/A   Clear
8:55 PM 55.4 °F - 24.8 °F 31% 30.18 in 10.0 mi WNW 3.5 mph - N/A   Clear
9:15 PM 55.4 °F - 24.8 °F 31% 30.18 in 10.0 mi West 5.8 mph - N/A   Clear
9:35 PM 55.4 °F - 23.0 °F 29% 30.18 in 10.0 mi West 3.5 mph - N/A   Clear
9:55 PM 53.6 °F - 21.2 °F 28% 30.18 in 10.0 mi West 3.5 mph - N/A   Clear
10:15 PM 53.6 °F - 23.0 °F 30% 30.18 in 10.0 mi West 3.5 mph - N/A   Clear
10:35 PM 53.6 °F - 23.0 °F 30% 30.18 in 10.0 mi West 3.5 mph - N/A   Clear
10:55 PM 51.8 °F - 24.8 °F 35% 30.18 in 10.0 mi West 3.5 mph - N/A   Clear
11:15 PM 51.8 °F - 26.6 °F 38% 30.18 in 10.0 mi Calm Calm - N/A   Clear
11:35 PM 51.8 °F - 26.6 °F 38% 30.17 in 10.0 mi Calm Calm - N/A   Clear
11:55 PM 50.0 °F - 28.4 °F 43% 30.17 in 10.0 mi West 3.5 mph - N/A   Clear